Content
SEND FEEDBACK

Daily
Averages
Monthly
Summary
Mexico

QUERÉTARO - AEROPUERTO, QUERÉTARO


Home > North America > Mexico > Querétaro
Elevation: 6266 feet     Latitude: 20 35N     Longitude: 100 12W

WEATHER
 
SELECT A DAY
Number of Records: 120,888;   Date Range: 1/1/95 - 10/29/14
 
SHARE

PRINT THIS DATA

[ ← Previous Day ]
WEATHER ALMANAC - JANUARY 23, 2013
[ Next Day → ]
[ °C ]   °F
Weather ElementAverageHighLow
Temperature57.1 °F68 °F (1:45 pm)46.4 °F (11:45 pm)
Dewpoint43.2 °F50 °F (8:55 pm)35.6 °F (3:45 am)
Humidity59.6 %82 % (7:45 am)29 % (2:50 pm)
Barometer30.33 in30.47 in (10:45 am)29.99 in (2:50 pm)
Wind Speed7.2 mph17.9 mph (8:40 am)
Weather ElementAverage
Visibility7.7 mi
Wind DirectionENE (67.6 °)

Weather ElementTotal
Precipitation---
Heating Degree Days7.8 (Base 65)
Growing Degree Days7.2 (Base 50)
Averaged from 29 records on January 23, 2013
WEATHER CONDITIONS BREAKOUT
WIND DIRECTION BREAKOUT
WEATHER BY HOUR - JANUARY 23, 2013
[ °C ]   °F
Local TimeTemperatureDewpointHumidityBarometerVisibilityWind DirectionWind SpeedGust SpeedPrecipitationEventsConditions
2:40 AM50.0 °F43.0 °F71 %30.02 in6.0 miEast (90°)4.5 mphPartly Cloudy
2:45 AM50.0 °F41.0 °F71 %30.40 in7.0 miCalmScattered Clouds
3:45 AM51.8 °F35.6 °F54 %30.40 in7.0 miENE (70°)5.8 mphScattered Clouds
4:45 AM51.8 °F42.8 °F71 %30.40 in7.0 miCalmScattered Clouds
5:45 AM50.0 °F43.0 °F71 %30.09 in6.0 miSE (140°)2.2 mphScattered Clouds
5:45 AM50.0 °F41.0 °F71 %30.40 in7.0 miCalmScattered Clouds
6:45 AM50.0 °F41.0 °F71 %30.40 in7.0 miCalmMostly Cloudy
7:45 AM50.0 °F44.6 °F82 %30.42 in5.0 miCalmOvercast
8:40 AM53.0 °F45.0 °F67 %30.18 in16.0 miEast (90°)17.9 mphPartly Cloudy
8:45 AM51.8 °F46.4 °F82 %30.44 in5.0 miENE (70°)4.6 mphMostly Cloudy
9:45 AM57.2 °F46.4 °F67 %30.46 in5.0 miEast (80°)4.6 mphOvercast
10:45 AM59.0 °F48.2 °F67 %30.47 in6.0 miSSE (160°)9.2 mphOvercast
11:40 AM63.0 °F47.0 °F44 %30.19 in16.0 miEast (90°)15.7 mphScattered Clouds
11:45 AM62.6 °F46.4 °F55 %30.47 in7.0 miEast (80°)8.1 mphOvercast
12:45 PM62.6 °F46.4 °F55 %30.26 in6.0 miNE (50°)5.8 mphOvercast
1:45 PM68.0 °F42.8 °F40 %30.42 in6.0 miSE (130°)10.4 mphMostly Cloudy
2:45 PM66.2 °F42.8 °F43 %30.42 in6.0 miEast (80°)11.5 mphMostly Cloudy
2:50 PM67.0 °F42.0 °F29 %29.99 in12.0 miEast (90°)4.5 mphPartly Cloudy
3:45 PM66.2 °F41.0 °F40 %30.36 in6.0 miNNE (20°)9.2 mphScattered Clouds
4:45 PM68.0 °F41.0 °F37 %30.36 in6.0 miNE (40°)13.8 mphMostly Cloudy
5:45 PM64.4 °F42.8 °F45 %30.39 in7.0 miNE (50°)11.5 mphMostly Cloudy
6:45 PM62.6 °F41.0 °F45 %30.35 in7.0 miNE (40°)13.8 mphMostly Cloudy
7:45 PM59.0 °F41.0 °F51 %30.40 in7.0 miNE (40°)5.8 mphMostly Cloudy
8:45 PM57.2 °F39.2 °F51 %30.39 in7.0 miNE (50°)6.9 mphMostly Cloudy
8:55 PM58.0 °F50.0 °F66 %29.99 in12.0 miNE (50°)8.9 mphScattered Clouds
9:45 PM53.6 °F42.8 °F67 %30.45 in7.0 miEast (100°)6.9 mphMostly Cloudy
10:45 PM51.8 °F42.8 °F71 %30.47 in7.0 miESE (120°)9.2 mphScattered Clouds
11:45 PM46.4 °F41.0 °F81 %30.47 in7.0 miEast (90°)9.2 mphScattered Clouds
11:55 PM54.0 °F45.0 °F62 %30.06 in12.0 miSE (140°)8.9 mphPartly Cloudy
Hourly data recorded from MMQT, located miles away from Querétaro - Aeropuerto, Querétaro







STORIES FROM OUR PARTNERS